1998-067PB (43553 NORAD) Tracking and Keplerian Element Data

This shows tracking and keplerian element data for the satellite.

Feedback or suggestion? Click here.




ElementValue
Catalog43553
Name1998-067PB
Epoch Orbit5676
Epoch Day193.46974891
Epoch Year2019
RAAN223.6653
Inclination51.6391
Eccentricity0.0005498
Argument of Perigee233.7436
Mean Anonmoly126.305
Mean Motion15.60812152
Decay Rate7.177E-05
L11 43553U 98067PB 19193.46974891 .00007177 00000-0 90453-4 0 9998
L22 43553 51.6391 223.6653 0005498 233.7436 126.3050 15.60812152 56760

Live tracking and technical data element details for 1998-067PB (NORAD 43553). 1998-067PB can be tracked NOW for your location showing map with azimuth and elevation plus other details from your city location.

Track the satellite on the map from your city or location and see movement details for azimuth, elevation, latitude, longitude, range, height, and movement on the map or in text.







IsCatalogInMostPopularTable: catalog: 43553, numindb: 177
Update: records affected: 1



GetName: 43553 1998-067PB

Hit Count: updated at: Tue, 16 Jul 2019 20:18:46 GMT